# Seawater temperature data from Kruunuvuorenselkä
# Location: 60.163N, 24.997E
# (c) Finnish Meteorological Institute

# "Localtime": Time of the measurement (Finnish local time, EET or EEST)
# "UTC": Time of the measurement (UTC)
# "Tw_f0_1": Water temperature (C) at level -1.1m (N2000)
# "Tw_f0_2": Water temperature (C) at level -2.8m (N2000)
# "Tw_f0_3": Water temperature (C) at level -5.3m (N2000)
# "Tw_f0_4": Water temperature (C) at level -7.3m (N2000)
# "Tw_f0_5": Water temperature (C) at level -9.6m (N2000), in the bottom mud

"Localtime", "UTC", "Tw_f0_1", "Tw_f0_2", "Tw_f0_3", "Tw_f0_4", "Tw_f0_5"
2024-04-09T23:10:00, 2024-04-09T20:10:00Z, 3.1, 0.4, 0.1, 0.2, 0.1
2024-04-09T23:20:00, 2024-04-09T20:20:00Z, 3.1, 0.4, 0.1, 0.3, 0.1
2024-04-09T23:30:00, 2024-04-09T20:30:00Z, 3.1, 0.5, 0.2, 0.2, 0.1
2024-04-09T23:40:00, 2024-04-09T20:40:00Z, 3.0, 0.5, 0.2, 0.3, 0.1
2024-04-09T23:50:00, 2024-04-09T20:50:00Z, 3.0, 0.5, 0.3, 0.3, 0.1
2024-04-10T00:00:00, 2024-04-09T21:00:00Z, 2.9, 0.4, 0.3, 0.3, 0.1
2024-04-10T00:10:00, 2024-04-09T21:10:00Z, 2.7, 0.4, 0.3, 0.3, 0.1
2024-04-10T00:20:00, 2024-04-09T21:20:00Z, 2.7, 0.4, 0.2, 0.3, 0.1
2024-04-10T00:30:00, 2024-04-09T21:30:00Z, 2.6, 0.4, 0.1, 0.2, 0.1
2024-04-10T00:40:00, 2024-04-09T21:40:00Z, 2.6, 0.5, 0.2, 0.2, 0.1
2024-04-10T00:50:00, 2024-04-09T21:50:00Z, 2.6, 0.5, 0.1, 0.2, 0.1
2024-04-10T01:00:00, 2024-04-09T22:00:00Z, 2.6, 0.5, 0.1, 0.2, 0.2
2024-04-10T01:10:00, 2024-04-09T22:10:00Z, 2.5, 0.5, 0.2, 0.2, 0.2
2024-04-10T01:20:00, 2024-04-09T22:20:00Z, 2.5, 0.5, 0.2, 0.2, 0.2
2024-04-10T01:30:00, 2024-04-09T22:30:00Z, 2.5, 0.5, 0.3, 0.2, 0.2
2024-04-10T01:40:00, 2024-04-09T22:40:00Z, 2.4, 0.5, 0.2, 0.3, 0.2
2024-04-10T01:50:00, 2024-04-09T22:50:00Z, 2.4, 0.5, 0.3, 0.3, 0.2
2024-04-10T02:00:00, 2024-04-09T23:00:00Z, 2.4, 0.4, 0.2, 0.2, 0.2
2024-04-10T02:10:00, 2024-04-09T23:10:00Z, 2.3, 0.4, 0.1, 0.2, 0.1
2024-04-10T02:20:00, 2024-04-09T23:20:00Z, 2.3, 0.4, 0.1, 0.2, 0.1
2024-04-10T02:30:00, 2024-04-09T23:30:00Z, 2.3, 0.4, 0.2, 0.2, 0.2
2024-04-10T02:40:00, 2024-04-09T23:40:00Z, 2.3, 0.5, 0.2, 0.2, 0.2
2024-04-10T02:50:00, 2024-04-09T23:50:00Z, 2.3, 0.4, 0.2, 0.2, 0.2
2024-04-10T03:00:00, 2024-04-10T00:00:00Z, 2.2, 0.5, 0.2, 0.2, 0.2
2024-04-10T03:10:00, 2024-04-10T00:10:00Z, 2.2, 0.5, 0.2, 0.2, 0.2
2024-04-10T03:20:00, 2024-04-10T00:20:00Z, 2.2, 0.4, 0.1, 0.2, 0.2
2024-04-10T03:30:00, 2024-04-10T00:30:00Z, 2.2, 0.4, 0.1, 0.2, 0.2
2024-04-10T03:40:00, 2024-04-10T00:40:00Z, 2.3, 0.5, 0.1, 0.2, 0.2
2024-04-10T03:50:00, 2024-04-10T00:50:00Z, 2.3, 0.5, 0.2, 0.3, 0.2
2024-04-10T04:00:00, 2024-04-10T01:00:00Z, 2.3, 0.4, 0.2, 0.3, 0.2
2024-04-10T04:10:00, 2024-04-10T01:10:00Z, 2.3, 0.4, 0.2, 0.3, 0.2
2024-04-10T04:20:00, 2024-04-10T01:20:00Z, 2.3, 0.5, 0.2, 0.3, 0.2
2024-04-10T04:30:00, 2024-04-10T01:30:00Z, 2.2, 0.5, 0.2, 0.3, 0.2
2024-04-10T04:40:00, 2024-04-10T01:40:00Z, 2.2, 0.5, 0.2, 0.3, 0.2
2024-04-10T04:50:00, 2024-04-10T01:50:00Z, 2.2, 0.5, 0.1, 0.3, 0.2
2024-04-10T05:00:00, 2024-04-10T02:00:00Z, 2.2, 0.5, 0.2, 0.2, 0.2
2024-04-10T05:10:00, 2024-04-10T02:10:00Z, 2.2, 0.5, 0.2, 0.2, 0.2
2024-04-10T05:20:00, 2024-04-10T02:20:00Z, 2.3, 0.5, 0.2, 0.2, 0.2
2024-04-10T05:30:00, 2024-04-10T02:30:00Z, 2.3, 0.5, 0.2, 0.2, 0.2
2024-04-10T05:40:00, 2024-04-10T02:40:00Z, 2.3, 0.5, 0.2, 0.3, 0.2
2024-04-10T05:50:00, 2024-04-10T02:50:00Z, 2.3, 0.5, 0.1, 0.2, 0.2
2024-04-10T06:00:00, 2024-04-10T03:00:00Z, 2.4, 0.6, 0.2, 0.2, 0.2
2024-04-10T06:10:00, 2024-04-10T03:10:00Z, 2.4, 0.7, 0.2, 0.2, 0.1
2024-04-10T06:20:00, 2024-04-10T03:20:00Z, 2.4, 0.6, 0.2, 0.2, 0.2
2024-04-10T06:30:00, 2024-04-10T03:30:00Z, 2.4, 0.6, 0.2, 0.2, 0.2
2024-04-10T06:40:00, 2024-04-10T03:40:00Z, 2.4, 0.6, 0.2, 0.2, 0.2
2024-04-10T06:50:00, 2024-04-10T03:50:00Z, 2.4, 0.7, 0.2, 0.2, 0.2
2024-04-10T07:00:00, 2024-04-10T04:00:00Z, 2.4, 0.6, 0.2, 0.2, 0.2
2024-04-10T07:10:00, 2024-04-10T04:10:00Z, 2.4, 0.6, 0.2, 0.2, 0.2
2024-04-10T07:20:00, 2024-04-10T04:20:00Z, 2.4, 0.6, 0.2, 0.2, 0.2
2024-04-10T07:30:00, 2024-04-10T04:30:00Z, 2.5, 0.7, 0.2, 0.2, 0.2
2024-04-10T07:40:00, 2024-04-10T04:40:00Z, 2.5, 0.6, 0.1, 0.2, 0.2
2024-04-10T07:50:00, 2024-04-10T04:50:00Z, 2.5, 0.6, 0.1, 0.2, 0.2
2024-04-10T08:00:00, 2024-04-10T05:00:00Z, 2.5, 0.6, 0.1, 0.2, 0.2
2024-04-10T08:10:00, 2024-04-10T05:10:00Z, 2.5, 0.5, 0.1, 0.2, 0.2
2024-04-10T08:20:00, 2024-04-10T05:20:00Z, 2.5, 0.5, 0.1, 0.2, 0.2
2024-04-10T08:30:00, 2024-04-10T05:30:00Z, 2.5, 0.5, 0.1, 0.2, 0.2
2024-04-10T08:40:00, 2024-04-10T05:40:00Z, 2.4, 0.5, 0.1, 0.2, 0.2
2024-04-10T08:50:00, 2024-04-10T05:50:00Z, 2.4, 0.5, 0.2, 0.2, 0.2
2024-04-10T09:00:00, 2024-04-10T06:00:00Z, 2.4, 0.5, 0.1, 0.2, 0.2
2024-04-10T09:10:00, 2024-04-10T06:10:00Z, 2.5, 0.5, 0.1, 0.2, 0.2
2024-04-10T09:20:00, 2024-04-10T06:20:00Z, 2.5, 0.5, 0.2, 0.2, 0.2
2024-04-10T09:30:00, 2024-04-10T06:30:00Z, 2.4, 0.5, 0.2, 0.2, 0.2
2024-04-10T09:40:00, 2024-04-10T06:40:00Z, 2.5, 0.6, 0.2, 0.2, 0.2
2024-04-10T09:50:00, 2024-04-10T06:50:00Z, 2.5, 0.7, 0.2, 0.2, 0.2
2024-04-10T10:00:00, 2024-04-10T07:00:00Z, 2.6, 0.6, 0.3, 0.3, 0.2
2024-04-10T10:10:00, 2024-04-10T07:10:00Z, 2.6, 0.6, 0.2, 0.2, 0.2
2024-04-10T10:20:00, 2024-04-10T07:20:00Z, 2.6, 0.6, 0.3, 0.2, 0.2
2024-04-10T10:30:00, 2024-04-10T07:30:00Z, 2.7, 0.6, 0.3, 0.2, 0.2
2024-04-10T10:40:00, 2024-04-10T07:40:00Z, 2.8, 0.8, 0.2, 0.2, 0.2
2024-04-10T10:50:00, 2024-04-10T07:50:00Z, 2.7, 0.5, 0.1, 0.2, 0.2
2024-04-10T11:00:00, 2024-04-10T08:00:00Z, 2.6, 0.5, 0.3, 0.3, 0.2
2024-04-10T11:10:00, 2024-04-10T08:10:00Z, 2.6, 0.7, 0.3, 0.3, 0.2
2024-04-10T11:20:00, 2024-04-10T08:20:00Z, 2.6, 0.5, 0.2, 0.2, 0.2
2024-04-10T11:30:00, 2024-04-10T08:30:00Z, 2.6, 0.4, 0.3, 0.2, 0.2
2024-04-10T11:40:00, 2024-04-10T08:40:00Z, 2.7, 0.6, 0.3, 0.2, 0.2
2024-04-10T11:50:00, 2024-04-10T08:50:00Z, 2.8, 0.7, 0.3, 0.2, 0.2
2024-04-10T12:00:00, 2024-04-10T09:00:00Z, 2.9, 0.5, 0.2, 0.2, 0.2
2024-04-10T12:10:00, 2024-04-10T09:10:00Z, 2.8, 0.4, 0.1, 0.2, 0.2
2024-04-10T12:20:00, 2024-04-10T09:20:00Z, 2.9, 0.4, 0.2, 0.2, 0.2
2024-04-10T12:30:00, 2024-04-10T09:30:00Z, 3.0, 0.4, 0.2, 0.2, 0.2
2024-04-10T12:40:00, 2024-04-10T09:40:00Z, 3.0, 0.5, 0.2, 0.2, 0.2
2024-04-10T12:50:00, 2024-04-10T09:50:00Z, 2.9, 0.4, 0.2, 0.2, 0.2
2024-04-10T13:00:00, 2024-04-10T10:00:00Z, 2.6, 0.4, 0.2, 0.2, 0.2
2024-04-10T13:10:00, 2024-04-10T10:10:00Z, 2.3, 0.6, 0.2, 0.2, 0.2
2024-04-10T13:20:00, 2024-04-10T10:20:00Z, 2.3, 0.7, 0.4, 0.2, 0.2
2024-04-10T13:30:00, 2024-04-10T10:30:00Z, 2.2, 0.4, 0.3, 0.2, 0.2
2024-04-10T13:40:00, 2024-04-10T10:40:00Z, 2.1, 0.6, 0.3, 0.3, 0.2
2024-04-10T13:50:00, 2024-04-10T10:50:00Z, 2.1, 0.5, 0.2, 0.3, 0.2
2024-04-10T14:00:00, 2024-04-10T11:00:00Z, 1.9, 0.5, 0.2, 0.2, 0.2
2024-04-10T14:10:00, 2024-04-10T11:10:00Z, 1.8, 0.5, 0.2, 0.4, 0.2
2024-04-10T14:20:00, 2024-04-10T11:20:00Z, 1.8, 0.5, 0.2, 0.2, 0.2
2024-04-10T14:30:00, 2024-04-10T11:30:00Z, 1.8, 0.5, 0.3, 0.2, 0.2
2024-04-10T14:40:00, 2024-04-10T11:40:00Z, 1.8, 0.7, 0.4, 0.2, 0.2
2024-04-10T14:50:00, 2024-04-10T11:50:00Z, 1.8, 0.6, 0.1, 0.2, 0.2
2024-04-10T15:00:00, 2024-04-10T12:00:00Z, 1.7, 0.6, 0.2, 0.2, 0.2
2024-04-10T15:10:00, 2024-04-10T12:10:00Z, 1.7, 0.6, 0.5, 0.5, 0.2
2024-04-10T15:20:00, 2024-04-10T12:20:00Z, 1.7, 1.0, 0.6, 0.3, 0.2
2024-04-10T15:30:00, 2024-04-10T12:30:00Z, 1.7, 1.2, 0.5, 0.4, 0.2
2024-04-10T15:40:00, 2024-04-10T12:40:00Z, 1.7, 1.5, 0.9, 0.3, 0.1
2024-04-10T15:50:00, 2024-04-10T12:50:00Z, 1.7, 1.5, 0.6, 0.3, 0.1
2024-04-10T16:00:00, 2024-04-10T13:00:00Z, 1.8, 1.6, 0.3, 0.2, 0.1
2024-04-10T16:10:00, 2024-04-10T13:10:00Z, 1.8, 1.5, 0.2, 0.2, 0.2
2024-04-10T16:20:00, 2024-04-10T13:20:00Z, 1.8, 1.4, 0.0, 0.2, 0.2
2024-04-10T16:30:00, 2024-04-10T13:30:00Z, 1.9, 1.4, 0.2, 0.3, 0.2
2024-04-10T16:40:00, 2024-04-10T13:40:00Z, 1.9, 1.7, 0.4, 0.3, 0.2
2024-04-10T16:50:00, 2024-04-10T13:50:00Z, 1.9, 1.6, 0.5, 0.3, 0.2
2024-04-10T17:00:00, 2024-04-10T14:00:00Z, 1.9, 1.6, 0.4, 0.2, 0.2
2024-04-10T17:10:00, 2024-04-10T14:10:00Z, 1.9, 1.6, 0.4, 0.3, 0.1
2024-04-10T17:20:00, 2024-04-10T14:20:00Z, 1.9, 1.5, 0.4, 0.2, 0.1
2024-04-10T17:30:00, 2024-04-10T14:30:00Z, 1.9, 1.6, 0.5, 0.3, 0.1
2024-04-10T17:40:00, 2024-04-10T14:40:00Z, 1.9, 1.6, 0.5, 0.3, 0.1
2024-04-10T17:50:00, 2024-04-10T14:50:00Z, 1.8, 1.4, 0.4, 0.3, 0.1
2024-04-10T18:00:00, 2024-04-10T15:00:00Z, 1.8, 1.5, 1.0, 0.3, 0.1
2024-04-10T18:10:00, 2024-04-10T15:10:00Z, 1.8, 1.5, 0.3, 0.3, 0.2
2024-04-10T18:20:00, 2024-04-10T15:20:00Z, 1.8, 1.5, 1.4, 0.3, 0.2
2024-04-10T18:30:00, 2024-04-10T15:30:00Z, 1.7, 1.5, 1.2, 0.5, 0.2
2024-04-10T18:40:00, 2024-04-10T15:40:00Z, 1.7, 1.5, 1.2, 0.4, 0.2
2024-04-10T18:50:00, 2024-04-10T15:50:00Z, 1.7, 1.5, 1.3, 1.1, 0.2
2024-04-10T19:00:00, 2024-04-10T16:00:00Z, 1.7, 1.5, 0.8, 0.2, 0.2
2024-04-10T19:10:00, 2024-04-10T16:10:00Z, 1.8, 1.5, 0.4, 0.2, 0.2
2024-04-10T19:20:00, 2024-04-10T16:20:00Z, 1.8, 1.5, 0.5, 0.2, 0.2
2024-04-10T19:30:00, 2024-04-10T16:30:00Z, 1.9, 1.5, 1.3, 0.2, 0.2
2024-04-10T19:40:00, 2024-04-10T16:40:00Z, 1.9, 1.6, 1.0, 0.2, 0.2
2024-04-10T19:50:00, 2024-04-10T16:50:00Z, 2.0, 1.7, 0.6, 0.2, 0.2
2024-04-10T20:00:00, 2024-04-10T17:00:00Z, 2.1, 1.7, 0.5, 0.2, 0.2
2024-04-10T20:10:00, 2024-04-10T17:10:00Z, 2.1, 1.7, 0.3, 0.2, 0.2
2024-04-10T20:20:00, 2024-04-10T17:20:00Z, 2.1, 1.7, 0.7, 0.2, 0.2
2024-04-10T20:30:00, 2024-04-10T17:30:00Z, 2.2, 1.6, 0.7, 0.2, 0.2
2024-04-10T20:40:00, 2024-04-10T17:40:00Z, 2.1, 1.7, 0.9, 0.3, 0.2
2024-04-10T20:50:00, 2024-04-10T17:50:00Z, 2.1, 1.7, 1.0, 0.2, 0.2
2024-04-10T21:00:00, 2024-04-10T18:00:00Z, 2.1, 1.5, 0.7, 0.2, 0.2
2024-04-10T21:10:00, 2024-04-10T18:10:00Z, 2.1, 1.5, 0.6, 0.2, 0.2
2024-04-10T21:20:00, 2024-04-10T18:20:00Z, 2.1, 1.6, 1.1, 0.3, 0.2
2024-04-10T21:30:00, 2024-04-10T18:30:00Z, 2.1, 1.6, 1.1, 0.2, 0.2
2024-04-10T21:40:00, 2024-04-10T18:40:00Z, 2.1, 1.6, 1.1, 0.3, 0.2
2024-04-10T21:50:00, 2024-04-10T18:50:00Z, 2.0, 1.6, 1.4, 0.3, 0.2
2024-04-10T22:00:00, 2024-04-10T19:00:00Z, 2.1, 1.7, 1.4, 0.3, 0.2
2024-04-10T22:10:00, 2024-04-10T19:10:00Z, 2.0, 1.9, 1.4, 0.4, 0.2
2024-04-10T22:20:00, 2024-04-10T19:20:00Z, 2.0, 1.8, 1.2, 0.4, 0.2
2024-04-10T22:30:00, 2024-04-10T19:30:00Z, 2.1, 1.8, 1.1, 0.3, 0.2
2024-04-10T22:40:00, 2024-04-10T19:40:00Z, 2.1, 1.8, 0.9, 0.3, 0.2
2024-04-10T22:50:00, 2024-04-10T19:50:00Z, 2.1, 1.9, 1.0, 0.4, 0.2
2024-04-10T23:00:00, 2024-04-10T20:00:00Z, 2.1, 1.9, 1.2, 0.4, 0.2
2024-04-10T23:10:00, 2024-04-10T20:10:00Z, 2.1, 1.8, 0.8, 0.4, 0.2
2024-04-10T23:20:00, 2024-04-10T20:20:00Z, 2.0, 1.7, 0.8, 0.3, 0.2
2024-04-10T23:30:00, 2024-04-10T20:30:00Z, 2.0, 1.8, 1.1, 0.4, 0.2
2024-04-10T23:40:00, 2024-04-10T20:40:00Z, 2.0, 1.7, 0.7, 0.3, 0.3
2024-04-10T23:50:00, 2024-04-10T20:50:00Z, 2.0, 1.6, 0.9, 0.3, 0.3
2024-04-11T00:00:00, 2024-04-10T21:00:00Z, 1.9, 1.5, 1.1, 0.3, 0.3
2024-04-11T00:10:00, 2024-04-10T21:10:00Z, 1.9, 1.5, 1.3, 0.3, 0.3
2024-04-11T00:20:00, 2024-04-10T21:20:00Z, 1.8, 1.6, 1.3, 0.3, 0.3
2024-04-11T00:30:00, 2024-04-10T21:30:00Z, 1.8, 1.6, 1.2, 0.3, 0.3
2024-04-11T00:40:00, 2024-04-10T21:40:00Z, 1.9, 1.6, 1.3, 0.3, 0.3
2024-04-11T00:50:00, 2024-04-10T21:50:00Z, 1.9, 1.7, 1.3, 0.3, 0.3
2024-04-11T01:00:00, 2024-04-10T22:00:00Z, 1.9, 1.6, 1.3, 0.3, 0.2
2024-04-11T01:10:00, 2024-04-10T22:10:00Z, 1.9, 1.6, 1.3, 0.3, 0.2
2024-04-11T01:20:00, 2024-04-10T22:20:00Z, 2.0, 1.7, 1.2, 0.3, 0.2
2024-04-11T01:30:00, 2024-04-10T22:30:00Z, 2.0, 1.7, 1.2, 0.4, 0.2
2024-04-11T01:40:00, 2024-04-10T22:40:00Z, 2.0, 1.8, 1.2, 0.4, 0.2
2024-04-11T01:50:00, 2024-04-10T22:50:00Z, 2.0, 1.8, 1.3, 0.4, 0.2
2024-04-11T02:00:00, 2024-04-10T23:00:00Z, 2.0, 1.8, 1.3, 0.4, 0.2
2024-04-11T02:10:00, 2024-04-10T23:10:00Z, 2.0, 1.8, 1.4, 0.4, 0.2
2024-04-11T02:20:00, 2024-04-10T23:20:00Z, 2.0, 1.8, 1.3, 0.3, 0.2
2024-04-11T02:30:00, 2024-04-10T23:30:00Z, 2.0, 1.8, 1.2, 0.3, 0.3
2024-04-11T02:40:00, 2024-04-10T23:40:00Z, 2.0, 1.8, 1.1, 0.3, 0.3
2024-04-11T02:50:00, 2024-04-10T23:50:00Z, 2.0, 1.8, 0.8, 0.3, 0.3
2024-04-11T03:00:00, 2024-04-11T00:00:00Z, 2.0, 1.8, 0.8, 0.3, 0.3
2024-04-11T03:10:00, 2024-04-11T00:10:00Z, 2.0, 1.8, 0.6, 0.3, 0.3
2024-04-11T03:20:00, 2024-04-11T00:20:00Z, 2.0, 1.8, 1.1, 0.3, 0.3
2024-04-11T03:30:00, 2024-04-11T00:30:00Z, 2.0, 1.8, 1.2, 0.3, 0.3
2024-04-11T03:40:00, 2024-04-11T00:40:00Z, 2.0, 1.8, 1.2, 0.4, 0.3
2024-04-11T03:50:00, 2024-04-11T00:50:00Z, 2.1, 1.9, 1.2, 0.4, 0.3
2024-04-11T04:00:00, 2024-04-11T01:00:00Z, 2.1, 1.9, 1.4, 0.5, 0.2
2024-04-11T04:10:00, 2024-04-11T01:10:00Z, 2.1, 1.8, 1.4, 0.5, 0.2
2024-04-11T04:20:00, 2024-04-11T01:20:00Z, 2.1, 1.8, 1.3, 0.5, 0.2
2024-04-11T04:30:00, 2024-04-11T01:30:00Z, 2.1, 1.8, 1.1, 0.4, 0.2
2024-04-11T04:40:00, 2024-04-11T01:40:00Z, 2.1, 1.8, 0.8, 0.3, 0.2
2024-04-11T04:50:00, 2024-04-11T01:50:00Z, 2.1, 1.8, 0.5, 0.3, 0.2
2024-04-11T05:00:00, 2024-04-11T02:00:00Z, 2.1, 1.8, 0.6, 0.3, 0.2
2024-04-11T05:10:00, 2024-04-11T02:10:00Z, 2.1, 1.9, 0.4, 0.3, 0.2
2024-04-11T05:20:00, 2024-04-11T02:20:00Z, 2.1, 1.9, 0.3, 0.3, 0.2
2024-04-11T05:30:00, 2024-04-11T02:30:00Z, 2.1, 1.9, 0.7, 0.4, 0.2
2024-04-11T05:40:00, 2024-04-11T02:40:00Z, 2.1, 1.9, 0.5, 0.4, 0.2
2024-04-11T05:50:00, 2024-04-11T02:50:00Z, 2.1, 1.8, 0.4, 0.3, 0.2
2024-04-11T06:00:00, 2024-04-11T03:00:00Z, 2.1, 1.8, 0.4, 0.3, 0.2
2024-04-11T06:10:00, 2024-04-11T03:10:00Z, 2.1, 1.8, 0.8, 0.4, 0.2
2024-04-11T06:20:00, 2024-04-11T03:20:00Z, 2.2, 1.8, 0.7, 0.3, 0.2
2024-04-11T06:30:00, 2024-04-11T03:30:00Z, 2.3, 1.8, 0.7, 0.3, 0.2
2024-04-11T06:40:00, 2024-04-11T03:40:00Z, 2.4, 1.8, 0.6, 0.4, 0.2
2024-04-11T06:50:00, 2024-04-11T03:50:00Z, 2.4, 1.7, 0.5, 0.4, 0.2
2024-04-11T07:00:00, 2024-04-11T04:00:00Z, 2.5, 1.8, 0.4, 0.4, 0.2
2024-04-11T07:10:00, 2024-04-11T04:10:00Z, 2.5, 1.8, 0.4, 0.4, 0.3
2024-04-11T07:20:00, 2024-04-11T04:20:00Z, 2.5, 1.7, 0.4, 0.4, 0.3
2024-04-11T07:30:00, 2024-04-11T04:30:00Z, 2.5, 1.7, 0.5, 0.4, 0.2
2024-04-11T07:40:00, 2024-04-11T04:40:00Z, 2.5, 1.7, 0.6, 0.5, 0.2
2024-04-11T07:50:00, 2024-04-11T04:50:00Z, 2.5, 1.7, 0.6, 0.5, 0.2
2024-04-11T08:00:00, 2024-04-11T05:00:00Z, 2.5, 1.6, 0.6, 0.5, 0.3
2024-04-11T08:10:00, 2024-04-11T05:10:00Z, 2.4, 1.6, 0.6, 0.5, 0.3
2024-04-11T08:20:00, 2024-04-11T05:20:00Z, 2.4, 1.5, 0.6, 0.5, 0.3
2024-04-11T08:30:00, 2024-04-11T05:30:00Z, 2.4, 1.6, 0.5, 0.5, 0.3
2024-04-11T08:40:00, 2024-04-11T05:40:00Z, 2.4, 1.8, 0.7, 0.6, 0.3
2024-04-11T08:50:00, 2024-04-11T05:50:00Z, 2.4, 1.6, 0.7, 0.6, 0.3
2024-04-11T09:00:00, 2024-04-11T06:00:00Z, 2.4, 1.6, 0.5, 0.6, 0.3
2024-04-11T09:10:00, 2024-04-11T06:10:00Z, 2.3, 1.6, 0.8, 0.6, 0.3
2024-04-11T09:20:00, 2024-04-11T06:20:00Z, 2.4, 1.7, 0.6, 0.6, 0.3
2024-04-11T09:30:00, 2024-04-11T06:30:00Z, 2.4, 1.7, 0.5, 0.6, 0.4
2024-04-11T09:40:00, 2024-04-11T06:40:00Z, 2.4, 1.8, 0.4, 0.6, 0.4
2024-04-11T09:50:00, 2024-04-11T06:50:00Z, 2.5, 2.0, 0.5, 0.5, 0.3
2024-04-11T10:00:00, 2024-04-11T07:00:00Z, 2.5, 2.0, 0.5, 0.5, 0.3
2024-04-11T10:10:00, 2024-04-11T07:10:00Z, 2.5, 2.0, 0.7, 0.5, 0.3
2024-04-11T10:20:00, 2024-04-11T07:20:00Z, 2.7, 2.1, 0.8, 0.5, 0.3
2024-04-11T10:30:00, 2024-04-11T07:30:00Z, 2.6, 2.0, 0.7, 0.5, 0.4
2024-04-11T10:40:00, 2024-04-11T07:40:00Z, 2.7, 1.6, 0.7, 0.5, 0.3
2024-04-11T10:50:00, 2024-04-11T07:50:00Z, 2.6, 2.1, 0.7, 0.6, 0.3
2024-04-11T11:00:00, 2024-04-11T08:00:00Z, 2.6, 1.5, 0.6, 0.5, 0.3
2024-04-11T11:10:00, 2024-04-11T08:10:00Z, 2.6, 1.6, 0.6, 0.5, 0.3
2024-04-11T11:20:00, 2024-04-11T08:20:00Z, 2.6, 1.6, 0.5, 0.5, 0.3
2024-04-11T11:30:00, 2024-04-11T08:30:00Z, 2.6, 1.4, 0.5, 0.6, 0.3
2024-04-11T11:40:00, 2024-04-11T08:40:00Z, 2.5, 1.1, 0.5, 0.6, 0.3
2024-04-11T11:50:00, 2024-04-11T08:50:00Z, 2.5, 1.3, 0.4, 0.6, 0.4
2024-04-11T12:00:00, 2024-04-11T09:00:00Z, 2.5, 1.8, 0.5, 0.6, 0.3
2024-04-11T12:10:00, 2024-04-11T09:10:00Z, 2.5, 2.0, 0.9, 0.7, 0.3
2024-04-11T12:20:00, 2024-04-11T09:20:00Z, 2.5, 1.9, 0.8, 0.6, 0.4
2024-04-11T12:30:00, 2024-04-11T09:30:00Z, 2.5, 2.0, 0.6, 0.6, 0.4
2024-04-11T12:40:00, 2024-04-11T09:40:00Z, 2.5, 2.0, 0.9, 0.7, 0.5
2024-04-11T12:50:00, 2024-04-11T09:50:00Z, 2.5, 1.6, 0.7, 0.9, 0.5
2024-04-11T13:00:00, 2024-04-11T10:00:00Z, 2.4, 1.5, 0.6, 0.9, 0.5
2024-04-11T13:10:00, 2024-04-11T10:10:00Z, 2.3, 1.7, 0.7, 0.9, 0.5
2024-04-11T13:20:00, 2024-04-11T10:20:00Z, 2.3, 1.6, 0.7, 0.9, 0.6
2024-04-11T13:30:00, 2024-04-11T10:30:00Z, 2.1, 1.6, 0.7, 0.9, 0.6
2024-04-11T13:40:00, 2024-04-11T10:40:00Z, 2.0, 1.6, 1.0, 0.9, 0.7
2024-04-11T13:50:00, 2024-04-11T10:50:00Z, 2.0, 1.5, 1.1, 0.9, 0.7
2024-04-11T14:00:00, 2024-04-11T11:00:00Z, 1.9, 1.4, 1.2, 1.1, 0.8
2024-04-11T14:10:00, 2024-04-11T11:10:00Z, 1.9, 1.4, 1.3, 1.2, 0.8
2024-04-11T14:20:00, 2024-04-11T11:20:00Z, 1.9, 1.4, 1.2, 1.1, 0.8
2024-04-11T14:30:00, 2024-04-11T11:30:00Z, 1.9, 1.4, 1.2, 1.1, 0.8
2024-04-11T14:40:00, 2024-04-11T11:40:00Z, 1.9, 1.4, 1.2, 1.2, 0.9
2024-04-11T14:50:00, 2024-04-11T11:50:00Z, 1.9, 1.4, 1.2, 1.1, 0.9
2024-04-11T15:00:00, 2024-04-11T12:00:00Z, 1.8, 1.3, 1.2, 1.2, 0.9
2024-04-11T15:10:00, 2024-04-11T12:10:00Z, 1.8, 1.3, 1.3, 1.2, 0.8
2024-04-11T15:20:00, 2024-04-11T12:20:00Z, 1.8, 1.3, 1.3, 1.2, 0.8
2024-04-11T15:30:00, 2024-04-11T12:30:00Z, 1.8, 1.3, 1.2, 1.4, 0.8
2024-04-11T15:40:00, 2024-04-11T12:40:00Z, 1.7, 1.3, 1.2, 1.4, 0.8
2024-04-11T15:50:00, 2024-04-11T12:50:00Z, 1.7, 1.4, 1.2, 1.4, 0.8
2024-04-11T16:00:00, 2024-04-11T13:00:00Z, 1.6, 1.4, 1.2, 1.3, 0.7
2024-04-11T16:10:00, 2024-04-11T13:10:00Z, 1.6, 1.4, 1.3, 1.5, 0.8
2024-04-11T16:20:00, 2024-04-11T13:20:00Z, 1.6, 1.8, 1.6, 1.7, 1.1
2024-04-11T16:30:00, 2024-04-11T13:30:00Z, 1.8, 1.8, 1.4, 1.6, 1.3
2024-04-11T16:40:00, 2024-04-11T13:40:00Z, 2.0, 1.7, 1.4, 1.7, 1.2
2024-04-11T16:50:00, 2024-04-11T13:50:00Z, 2.1, 1.6, 1.5, 1.7, 0.8
2024-04-11T17:00:00, 2024-04-11T14:00:00Z, 2.1, 1.8, 1.7, 1.2, 0.7
2024-04-11T17:10:00, 2024-04-11T14:10:00Z, 2.2, 1.9, 1.8, 1.8, 0.7
2024-04-11T17:20:00, 2024-04-11T14:20:00Z, 2.3, 1.9, 1.7, 1.1, 0.7
2024-04-11T17:30:00, 2024-04-11T14:30:00Z, 2.4, 2.0, 1.7, 1.5, 0.7
2024-04-11T17:40:00, 2024-04-11T14:40:00Z, 2.3, 2.1, 1.6, 1.3, 0.7
2024-04-11T17:50:00, 2024-04-11T14:50:00Z, 2.3, 2.1, 1.7, 1.4, 0.7
2024-04-11T18:00:00, 2024-04-11T15:00:00Z, 2.3, 2.1, 1.8, 1.3, 0.8
2024-04-11T18:10:00, 2024-04-11T15:10:00Z, 2.4, 2.2, 1.7, 1.0, 0.7
2024-04-11T18:20:00, 2024-04-11T15:20:00Z, 2.4, 2.2, 1.9, 1.6, 0.7
2024-04-11T18:30:00, 2024-04-11T15:30:00Z, 2.4, 2.1, 1.7, 1.2, 0.7
2024-04-11T18:40:00, 2024-04-11T15:40:00Z, 2.5, 2.2, 1.9, 1.6, 0.8
2024-04-11T18:50:00, 2024-04-11T15:50:00Z, 2.5, 2.3, 1.9, 1.3, 0.7
2024-04-11T19:00:00, 2024-04-11T16:00:00Z, 2.5, 2.3, 1.8, 0.9, 0.7
2024-04-11T19:10:00, 2024-04-11T16:10:00Z, 2.5, 2.2, 1.8, 0.8, 0.7
2024-04-11T19:20:00, 2024-04-11T16:20:00Z, 2.5, 2.2, 1.8, 0.8, 0.6
2024-04-11T19:30:00, 2024-04-11T16:30:00Z, 2.7, 2.1, 1.6, 0.8, 0.6
2024-04-11T19:40:00, 2024-04-11T16:40:00Z, 2.7, 2.1, 1.1, 0.8, 0.5
2024-04-11T19:50:00, 2024-04-11T16:50:00Z, 2.6, 2.1, 1.0, 0.8, 0.5
2024-04-11T20:00:00, 2024-04-11T17:00:00Z, 2.6, 2.1, 1.0, 0.7, 0.5
2024-04-11T20:10:00, 2024-04-11T17:10:00Z, 2.6, 2.1, 1.1, 0.7, 0.5
2024-04-11T20:20:00, 2024-04-11T17:20:00Z, 2.6, 2.2, 1.1, 0.7, 0.6
2024-04-11T20:30:00, 2024-04-11T17:30:00Z, 2.6, 2.0, 1.0, 0.8, 0.6
2024-04-11T20:40:00, 2024-04-11T17:40:00Z, 2.7, 1.9, 1.3, 0.9, 0.6
2024-04-11T20:50:00, 2024-04-11T17:50:00Z, 2.7, 2.1, 1.4, 0.9, 0.6
2024-04-11T21:00:00, 2024-04-11T18:00:00Z, 2.7, 2.3, 1.3, 1.5, 0.6
2024-04-11T21:10:00, 2024-04-11T18:10:00Z, 2.7, 2.3, 1.3, 1.4, 0.6
2024-04-11T21:20:00, 2024-04-11T18:20:00Z, 2.7, 2.4, 1.4, 1.0, 0.6
2024-04-11T21:30:00, 2024-04-11T18:30:00Z, 2.8, 2.4, 1.4, 0.9, 0.5
2024-04-11T21:40:00, 2024-04-11T18:40:00Z, 2.8, 2.4, 1.2, 1.1, 0.5
2024-04-11T21:50:00, 2024-04-11T18:50:00Z, 2.7, 2.6, 1.4, 1.0, 0.5
2024-04-11T22:00:00, 2024-04-11T19:00:00Z, 2.8, 2.5, 1.2, 1.2, 0.5
2024-04-11T22:10:00, 2024-04-11T19:10:00Z, 2.8, 2.6, 1.2, 1.3, 0.6
2024-04-11T22:20:00, 2024-04-11T19:20:00Z, 2.8, 2.5, 1.2, 1.0, 0.7
2024-04-11T22:30:00, 2024-04-11T19:30:00Z, 2.8, 2.5, 1.2, 1.1, 0.7
2024-04-11T22:40:00, 2024-04-11T19:40:00Z, 2.7, 2.5, 1.3, 1.1, 0.7
2024-04-11T22:50:00, 2024-04-11T19:50:00Z, 2.7, 2.4, 1.2, 1.0, 0.7
2024-04-11T23:00:00, 2024-04-11T20:00:00Z, 2.7, 2.5, 1.2, 1.0, 0.7
2024-04-11T23:10:00, 2024-04-11T20:10:00Z, 2.7, 2.5, 1.1, 1.0, 0.7
2024-04-11T23:20:00, 2024-04-11T20:20:00Z, 2.7, 2.5, 1.1, 1.0, 0.7
2024-04-11T23:30:00, 2024-04-11T20:30:00Z, 2.7, 2.4, 1.3, 1.3, 0.7
2024-04-11T23:40:00, 2024-04-11T20:40:00Z, 2.7, 2.4, 1.2, 1.0, 0.7
2024-04-11T23:50:00, 2024-04-11T20:50:00Z, 2.7, 2.3, 1.2, 1.0, 0.8
2024-04-12T00:00:00, 2024-04-11T21:00:00Z, 2.7, 2.4, 1.1, 1.0, 0.7
2024-04-12T00:10:00, 2024-04-11T21:10:00Z, 2.7, 2.4, 1.5, 1.2, 0.7
2024-04-12T00:20:00, 2024-04-11T21:20:00Z, 2.6, 2.4, 1.6, 1.1, 0.8
2024-04-12T00:30:00, 2024-04-11T21:30:00Z, 2.6, 2.4, 1.5, 1.0, 0.8
2024-04-12T00:40:00, 2024-04-11T21:40:00Z, 2.6, 2.4, 1.2, 1.0, 0.8
2024-04-12T00:50:00, 2024-04-11T21:50:00Z, 2.6, 2.5, 1.3, 1.0, 0.8
2024-04-12T01:00:00, 2024-04-11T22:00:00Z, 2.6, 2.5, 1.0, 1.0, 0.7
2024-04-12T01:10:00, 2024-04-11T22:10:00Z, 2.6, 2.5, 1.0, 1.0, 0.7
2024-04-12T01:20:00, 2024-04-11T22:20:00Z, 2.6, 2.5, 1.0, 0.9, 0.7
2024-04-12T01:30:00, 2024-04-11T22:30:00Z, 2.7, 2.5, 1.0, 0.9, 0.7
2024-04-12T01:40:00, 2024-04-11T22:40:00Z, 2.7, 2.5, 1.1, 0.9, 0.7
2024-04-12T01:50:00, 2024-04-11T22:50:00Z, 2.7, 2.5, 1.0, 0.9, 0.7
2024-04-12T02:00:00, 2024-04-11T23:00:00Z, 2.7, 2.5, 0.8, 0.9, 0.7
2024-04-12T02:10:00, 2024-04-11T23:10:00Z, 2.7, 2.5, 0.8, 0.7, 0.7
2024-04-12T02:20:00, 2024-04-11T23:20:00Z, 2.7, 2.4, 1.0, 0.9, 0.7
2024-04-12T02:30:00, 2024-04-11T23:30:00Z, 2.7, 2.5, 1.1, 1.0, 0.7
2024-04-12T02:40:00, 2024-04-11T23:40:00Z, 2.7, 2.6, 0.9, 1.1, 0.7
2024-04-12T02:50:00, 2024-04-11T23:50:00Z, 2.7, 2.3, 1.0, 1.1, 0.7
2024-04-12T03:00:00, 2024-04-12T00:00:00Z, 2.7, 2.5, 1.0, 1.0, 0.7
2024-04-12T03:10:00, 2024-04-12T00:10:00Z, 2.7, 2.4, 1.1, 1.1, 0.8
2024-04-12T03:20:00, 2024-04-12T00:20:00Z, 2.7, 2.3, 1.1, 1.0, 0.8
2024-04-12T03:30:00, 2024-04-12T00:30:00Z, 2.7, 2.5, 1.2, 1.1, 0.8
2024-04-12T03:40:00, 2024-04-12T00:40:00Z, 2.7, 2.2, 1.0, 0.9, 0.8
2024-04-12T03:50:00, 2024-04-12T00:50:00Z, 2.8, 2.4, 0.9, 0.9, 0.7
2024-04-12T04:00:00, 2024-04-12T01:00:00Z, 2.9, 2.4, 0.9, 0.9, 0.6
2024-04-12T04:10:00, 2024-04-12T01:10:00Z, 3.0, 2.3, 1.0, 1.0, 0.6
2024-04-12T04:20:00, 2024-04-12T01:20:00Z, 3.1, 2.3, 1.0, 1.0, 0.6
2024-04-12T04:30:00, 2024-04-12T01:30:00Z, 3.2, 2.3, 0.9, 1.0, 0.6
2024-04-12T04:40:00, 2024-04-12T01:40:00Z, 3.2, 2.2, 0.9, 1.0, 0.6
2024-04-12T04:50:00, 2024-04-12T01:50:00Z, 3.2, 2.2, 0.9, 1.1, 0.6
2024-04-12T05:00:00, 2024-04-12T02:00:00Z, 3.2, 2.0, 0.9, 1.0, 0.6
2024-04-12T05:10:00, 2024-04-12T02:10:00Z, 3.3, 1.6, 1.0, 1.1, 0.6
2024-04-12T05:20:00, 2024-04-12T02:20:00Z, 3.3, 1.5, 1.0, 1.1, 0.7
2024-04-12T05:30:00, 2024-04-12T02:30:00Z, 3.3, 1.6, 0.9, 1.1, 0.7
2024-04-12T05:40:00, 2024-04-12T02:40:00Z, 3.4, 1.6, 1.0, 1.1, 0.8
2024-04-12T05:50:00, 2024-04-12T02:50:00Z, 3.3, 1.6, 1.0, 1.1, 0.8
2024-04-12T06:00:00, 2024-04-12T03:00:00Z, 3.2, 1.6, 1.0, 1.2, 0.7
2024-04-12T06:10:00, 2024-04-12T03:10:00Z, 3.1, 1.7, 1.0, 1.1, 0.7
2024-04-12T06:20:00, 2024-04-12T03:20:00Z, 3.1, 1.6, 1.0, 1.0, 0.6
2024-04-12T06:30:00, 2024-04-12T03:30:00Z, 3.1, 1.6, 1.0, 1.1, 0.6
2024-04-12T06:40:00, 2024-04-12T03:40:00Z, 3.1, 1.6, 1.1, 1.1, 0.6
2024-04-12T06:50:00, 2024-04-12T03:50:00Z, 3.1, 1.5, 1.1, 1.0, 0.6
2024-04-12T07:00:00, 2024-04-12T04:00:00Z, 3.1, 1.5, 1.1, 1.0, 0.5
2024-04-12T07:10:00, 2024-04-12T04:10:00Z, 3.1, 1.5, 1.0, 1.0, 0.5
2024-04-12T07:20:00, 2024-04-12T04:20:00Z, 3.2, 1.2, 1.0, 0.9, 0.5
2024-04-12T07:30:00, 2024-04-12T04:30:00Z, 3.3, 1.2, 1.0, 0.9, 0.4
2024-04-12T07:40:00, 2024-04-12T04:40:00Z, 3.4, 1.5, 1.0, 1.1, 0.5
2024-04-12T07:50:00, 2024-04-12T04:50:00Z, 3.5, 1.5, 1.0, 1.0, 0.5
2024-04-12T08:00:00, 2024-04-12T05:00:00Z, 3.5, 1.5, 1.0, 1.0, 0.5
2024-04-12T08:10:00, 2024-04-12T05:10:00Z, 3.5, 1.7, 1.0, 1.0, 0.5
2024-04-12T08:20:00, 2024-04-12T05:20:00Z, 3.6, 1.6, 1.0, 1.0, 0.5
2024-04-12T08:30:00, 2024-04-12T05:30:00Z, 3.6, 1.4, 1.0, 1.1, 0.5
2024-04-12T08:40:00, 2024-04-12T05:40:00Z, 3.6, 1.3, 1.0, 1.0, 0.5
2024-04-12T08:50:00, 2024-04-12T05:50:00Z, 3.6, 1.3, 1.0, 1.0, 0.5
2024-04-12T09:00:00, 2024-04-12T06:00:00Z, 3.5, 1.5, 1.0, 1.0, 0.5
2024-04-12T09:10:00, 2024-04-12T06:10:00Z, 3.6, 1.4, 1.0, 1.1, 0.5